TimeCST,TemperatureF,Dew PointF,Humidity,Sea Level PressureIn,VisibilityMPH,Wind Direction,Wind SpeedMPH,Gust SpeedMPH,PrecipitationIn,Events,Conditions,WindDirDegrees,DateUTC
12:55 AM,30.9,28.0,89,30.15,10.0,Calm,Calm,-,N/A,,Clear,0,2012-11-26 06:55:00
1:55 AM,30.6,27.9,90,30.15,10.0,Calm,Calm,-,N/A,,Clear,0,2012-11-26 07:55:00
2:55 AM,31.1,28.9,92,30.15,10.0,Calm,Calm,-,N/A,,Clear,0,2012-11-26 08:55:00
3:55 AM,30.7,28.4,91,30.16,10.0,Calm,Calm,-,N/A,,Clear,0,2012-11-26 09:55:00
4:55 AM,31.3,28.6,90,30.17,10.0,Calm,Calm,-,N/A,,Clear,0,2012-11-26 10:55:00
5:55 AM,31.5,29.1,91,30.19,10.0,Calm,Calm,-,N/A,,Clear,0,2012-11-26 11:55:00
6:55 AM,34.2,32.2,92,30.21,10.0,Calm,Calm,-,N/A,,Clear,0,2012-11-26 12:55:00
7:55 AM,44.2,36.5,74,30.22,10.0,Calm,Calm,-,N/A,,Clear,0,2012-11-26 13:55:00
8:55 AM,56.1,39.9,55,30.24,10.0,East,3.5,-,N/A,,Partly Cloudy,80,2012-11-26 14:55:00
9:55 AM,62.1,43.0,50,30.22,10.0,East,6.9,-,N/A,,Scattered Clouds,100,2012-11-26 15:55:00
10:55 AM,63.5,43.9,49,30.21,10.0,East,5.8,-,N/A,,Mostly Cloudy,100,2012-11-26 16:55:00
11:55 AM,63.7,44.8,50,30.19,10.0,East,4.6,-,N/A,,Mostly Cloudy,100,2012-11-26 17:55:00
12:55 PM,65.5,46.4,50,30.17,10.0,SSE,4.6,-,N/A,,Mostly Cloudy,160,2012-11-26 18:55:00
1:55 PM,66.2,47.3,51,30.16,10.0,Calm,Calm,-,0.00,Rain,Light Rain,0,2012-11-26 19:55:00
2:15 PM,66.2,48.2,52,30.14,10.0,ENE,3.5,-,N/A,,Mostly Cloudy,70,2012-11-26 20:15:00
2:55 PM,67.3,49.3,52,30.16,10.0,Calm,Calm,-,N/A,,Mostly Cloudy,0,2012-11-26 20:55:00
3:46 PM,66.2,53.6,64,30.15,10.0,South,8.1,-,N/A,Rain,Light Rain,180,2012-11-26 21:46:00
3:55 PM,65.1,53.2,65,30.16,10.0,South,6.9,-,N/A,Rain,Light Rain,170,2012-11-26 21:55:00
4:18 PM,64.4,53.6,68,30.15,10.0,South,3.5,-,N/A,,Mostly Cloudy,170,2012-11-26 22:18:00
4:55 PM,63.1,53.2,70,30.17,10.0,SSE,4.6,-,0.00,,Mostly Cloudy,160,2012-11-26 22:55:00
5:56 PM,62.6,54.0,73,30.18,10.0,SSE,4.6,-,N/A,,Mostly Cloudy,150,2012-11-26 23:56:00
6:55 PM,61.3,54.3,78,30.18,10.0,SE,3.5,-,N/A,,Mostly Cloudy,130,2012-11-27 00:55:00
7:55 PM,60.4,54.3,80,30.21,10.0,SE,2.3,-,N/A,,Mostly Cloudy,130,2012-11-27 01:55:00
8:55 PM,58.3,53.8,85,30.20,10.0,SE,4.6,-,N/A,,Mostly Cloudy,140,2012-11-27 02:55:00
9:55 PM,62.1,56.5,82,30.18,10.0,SSE,6.9,-,N/A,,Mostly Cloudy,150,2012-11-27 03:55:00
10:55 PM,60.1,56.1,87,30.16,10.0,SSE,2.3,-,N/A,,Mostly Cloudy,150,2012-11-27 04:55:00
11:55 PM,59.4,56.7,91,30.15,10.0,SE,2.3,-,N/A,,Overcast,140,2012-11-27 05:55:00